Aérodrome :
LOGIN :

S'inscrire | Disclaimer

   EN    FR    IT 

 










Légende :    VFR   VFR Marginal   IFR   IFR Intensif   IFR Très Intensif
Visi : 
Plafond : 
>= 8 km
>= 3000ft
5 à 8 km
1000 à 3000 ft
1500m à 5 km
500 à 1000 ft
800 à 1500m
200 à 500 ft
< 800m
< 200 ft
Symboles :   Orages  Brouillard  Fortes neiges  Fortes précipitations  Vent > 20 kt
SIGMETs :   Divers  Orages  Givrage  Turbulence  Onde Orograph.  Cendres Volcan.







- Altitude de l'aérodrome : 358 ft
- Voir les cartes d'approche


EGTC - Cranfield

DERNIER METAR :
  • 281150Z 35007KT 310V020 9999 BKN008 14/13 Q0998

METARs EXPIRÉS :
  • 281120Z 35008KT 330V030 9999 BKN008 14/13 Q0998
  • 281050Z 35007KT 320V030 8000 BKN008 14/14 Q0998
  • 281020Z 35007KT 320V030 3500 BR -RA BKN005 14/14 Q0998
  • 280950Z 36007KT 3000 BR -RA BKN004 14/14 Q0998
  • 280920Z 01011KT 3000 BR -RA BKN004 14/14 Q0998

TAF TAF EGTC
Valide du 28 à 12h jusqu'au 28 à 18h UTC


281105Z 2812/2818 34008KT 4000 BR BKN006
BECMG 2812/2813 9999 NSW BKN010
PROB30
TEMPO 2813/2818 BKN015
Pas de NOTAMs connus pour ce terrain.



MET'MAP, la Météo Aéronautique d'un coup d'oeil ! - Copyright ORBIFLY Décembre 2007 - Disclaimer

ORBIFLY MET'MAP TEAM :

Programmation & Développement : Alexandra Zaïnal
Conception & Développement : Baudouin d'Aumeries
Co-Programmation & Développement : Marc-Olivier Méhu
Soutien technique & logistique : Manuel Goepfert

Contact : metmap@orbifly.com




SOURCES & CREDITS :

   NOAA